User: anonymous   Login
Location: Frizzleburg
(41.0764°N, 80.4548°W)
Time: 17:12:49
(UTC+00:00)
Language:

FENGYUN 3A - Orbit

View from above orbital plane
View from above orbital plane
View from above satellite
View from above satellite

Ground track
Ground track

The orbit data is extracted from the following two-line orbital elements,

1 32958U 08026A   20025.53984687 -.00000012  00000-0  13939-4 0  9995
2 32958  98.3936  18.8218 0009599  40.3158 319.8728 14.18616729604427
Epoch (UTC): 25 January 2020 12:57:22
Eccentricity: 0.0009599
inclination: 98.3936°
perigee height: 823 km
apogee height: 837 km
right ascension of ascending node: 18.8218°
argument of perigee: 40.3158°
revolutions per day: 14.18616729
mean anomaly at epoch: 319.8728°
orbit number at epoch: 60442

The dashed part of the orbit path shows where the satellite is in the earth's shadow,  

DLR